Air Resources Laboratory banner image
Air Resources Laboratory web site National Oceanic and Atmospheric Administration (NOAA)

oh zone


NYZ176-178-MAZ106-OHZ011-021-055-MIZ076-KYZ091-ILZ014-INZ047-
MNZ060-ONZ431-181900-

...Gateway Observations for Savannah International...

CITY           SKY/WX    TMP DP  RH WIND       PRES   REMARKS
Savannah Arpt  CLOUDY    68  65  90 W6        30.17F
6HR MIN TEMP:  58; 6HR MAX TEMP:  68; 6HR PCP: TRACE;

Atlanta        PTSUNNY   59  55  87 SW9       30.17F
6HR MIN TEMP:  48; 6HR MAX TEMP:  59;

Charlotte      PTSUNNY   62  48  60 SW8       30.11F
6HR MIN TEMP:  43; 6HR MAX TEMP:  62;

Dallas DFW     CLOUDY    51  48  89 SE6       30.18F FOG
6HR MIN TEMP:  49; 6HR MAX TEMP:  51;

Houston Bush   PTSUNNY   67  59  75 NE7       30.16F
6HR MIN TEMP:  56; 6HR MAX TEMP:  67; 6HR PCP: TRACE;

Wash National  MOSUNNY   53  34  48 SE3       30.04F
6HR MIN TEMP:  39; 6HR MAX TEMP:  53;

Wash Dulles    MOSUNNY   54  35  48 SW3       30.03F
6HR MIN TEMP:  28; 6HR MAX TEMP:  55;

Baltimore      PTSUNNY   53  36  52 SW6       30.02F
6HR MIN TEMP:  34; 6HR MAX TEMP:  53;

Philadelphia   PTSUNNY   48  35  60 W5        30.02F
6HR MIN TEMP:  37; 6HR MAX TEMP:  48;

Newark         CLOUDY    46  36  68 VRB5      30.02F
6HR MIN TEMP:  34; 6HR MAX TEMP:  46;

Laguardia      PTSUNNY   42  35  76 NE5       30.01F
6HR MIN TEMP:  36; 6HR MAX TEMP:  43;

J F K          PTSUNNY   46  39  76 NW6       30.02F
6HR MIN TEMP:  35; 6HR MAX TEMP:  46;

Boston         FLURRIES  31  19  61 CALM      30.05F
6HR MIN TEMP:  25; 6HR MAX TEMP:  31; 6HR PCP: TRACE;

Pittsburg      CLOUDY    43  39  86 SW9       29.98F
6HR MIN TEMP:  39; 6HR MAX TEMP:  43;

Akron          CLOUDY    39  36  89 SW12      29.96F FOG     WCI  32
6HR MIN TEMP:  36; 6HR MAX TEMP:  40;

Cleveland      CLOUDY    41  38  89 SW13      29.97F FOG
6HR MIN TEMP:  39; 6HR MAX TEMP:  41;

Cincinnati     CLOUDY    46  45  96 SW10      30.04F FOG
6HR MIN TEMP:  42; 6HR MAX TEMP:  46; 6HR PCP: TRACE;

Columbus       CLOUDY    44  43  95 SW14      30.02F
Detroit        CLOUDY    41  38  89 SW14      29.90F FOG
6HR MIN TEMP:  38; 6HR MAX TEMP:  41; 6HR PCP: TRACE;

Chicago O'Hare CLOUDY    42  36  79 W14G26    29.89F
6HR MIN TEMP:  42; 6HR MAX TEMP:  43; 6HR PCP:  0.01;

Minneapolis    CLOUDY    35  28  75 SW10      29.74F WCI  27
6HR MIN TEMP:  24; 6HR MAX TEMP:  35;

Indianapolis   CLOUDY    46  42  86 SW12      30.03F
6HR MIN TEMP:  42; 6HR MAX TEMP:  46; 6HR PCP: TRACE;

Toronto Canada LGT RAIN  36  34  93 SW6       29.83  FOG     WCI  31


NYZ176-178-MAZ106-OHZ011-021-055-MIZ076-KYZ091-ILZ014-INZ047-
MNZ060-ONZ431-181900-

...Gateway Observations for Savannah International...

CITY           SKY/WX    TMP DP  RH WIND       PRES   REMARKS
Savannah Arpt  CLOUDY    68  65  90 W6        30.17F
6HR MIN TEMP:  58; 6HR MAX TEMP:  68; 6HR PCP: TRACE;

Atlanta        PTSUNNY   59  55  87 SW9       30.17F
6HR MIN TEMP:  48; 6HR MAX TEMP:  59;

Charlotte      PTSUNNY   62  48  60 SW8       30.11F
6HR MIN TEMP:  43; 6HR MAX TEMP:  62;

Dallas DFW     CLOUDY    51  48  89 SE6       30.18F FOG
6HR MIN TEMP:  49; 6HR MAX TEMP:  51;

Houston Bush   PTSUNNY   67  59  75 NE7       30.16F
6HR MIN TEMP:  56; 6HR MAX TEMP:  67; 6HR PCP: TRACE;

Wash National  MOSUNNY   53  34  48 SE3       30.04F
6HR MIN TEMP:  39; 6HR MAX TEMP:  53;

Wash Dulles    MOSUNNY   54  35  48 SW3       30.03F
6HR MIN TEMP:  28; 6HR MAX TEMP:  55;

Baltimore      PTSUNNY   53  36  52 SW6       30.02F
6HR MIN TEMP:  34; 6HR MAX TEMP:  53;

Philadelphia   PTSUNNY   48  35  60 W5        30.02F
6HR MIN TEMP:  37; 6HR MAX TEMP:  48;

Newark         CLOUDY    46  36  68 VRB5      30.02F
6HR MIN TEMP:  34; 6HR MAX TEMP:  46;

Laguardia      PTSUNNY   42  35  76 NE5       30.01F
6HR MIN TEMP:  36; 6HR MAX TEMP:  43;

J F K          PTSUNNY   46  39  76 NW6       30.02F
6HR MIN TEMP:  35; 6HR MAX TEMP:  46;

Boston         FLURRIES  31  19  61 CALM      30.05F
6HR MIN TEMP:  25; 6HR MAX TEMP:  31; 6HR PCP: TRACE;

Pittsburg      CLOUDY    43  39  86 SW9       29.98F
6HR MIN TEMP:  39; 6HR MAX TEMP:  43;

Akron          CLOUDY    40  36  86 SW13      29.95F FOG     WCI  32
6HR MIN TEMP:  36; 6HR MAX TEMP:  40;

Cleveland      CLOUDY    41  38  89 SW13      29.97F FOG
6HR MIN TEMP:  39; 6HR MAX TEMP:  41;

Cincinnati     CLOUDY    46  45  96 SW10      30.04F FOG
6HR MIN TEMP:  42; 6HR MAX TEMP:  46; 6HR PCP: TRACE;

Columbus       CLOUDY    45  43  93 SW13      30.01F
Detroit        CLOUDY    41  38  89 SW14      29.90F FOG
6HR MIN TEMP:  38; 6HR MAX TEMP:  41; 6HR PCP: TRACE;

Chicago O'Hare CLOUDY    42  36  79 W14G26    29.89F
6HR MIN TEMP:  42; 6HR MAX TEMP:  43; 6HR PCP:  0.01;

Minneapolis    CLOUDY    35  28  75 SW10      29.74F WCI  27
6HR MIN TEMP:  24; 6HR MAX TEMP:  35;

Indianapolis   CLOUDY    46  42  86 SW12      30.03F
6HR MIN TEMP:  42; 6HR MAX TEMP:  46; 6HR PCP: TRACE;

Toronto Canada LGT RAIN  36  34  93 SW6       29.83  FOG     WCI  31